Temp
20 18 18 18 19 20 20 20 20 20 20 20 19 19 18 18 17 17 17 16 18 18 18 18 18 17 16 17 17 18 20 20
20 18 18 18 18 19 19 20 20 19 19 19 19 18 18 18 17 17 16 17 17 17 17 17 17 17 16 17 17 18 19 19
20 19 18 19 20 18 19 19 19 19 19 19 18 18 18 18 17 17 16 17 17 17 17 16 16 16 16 17 17 19 18 19
20 19 19 18 20 20 18 18 18 18 18 18 18 18 18 17 17 17 16 17 16 16 16 16 16 15 15 16 18 18 18 18
21 20 18 18 19 20 20 20 19 19 19 19 19 17 17 17 17 15 15 15 16 15 15 16 17 17 17 16 17 17 18 18
21 21 19 17 19 18 20 21 20 20 18 17 18 17 17 17 17 17 17 16 17 16 16 17 17 17 17 16 16 17 17 17
22 21 20 19 17 18 19 21 20 20 17 17 17 17 17 16 17 18 19 18 17 17 17 17 16 16 15 16 16 16 16 17
23 21 20 19 19 17 19 20 21 20 18 17 17 18 19 18 16 18 19 18 17 17 17 16 16 16 15 15 15 15 15 16
23 21 20 19 19 18 18 20 20 20 19 17 16 17 18 18 17 17 18 17 16 16 16 16 16 15 15 14 15 15 15 15
22 22 20 19 18 18 19 20 20 20 19 18 16 16 17 16 17 16 16 16 15 15 15 16 16 16 15 15 15 14 14 14
20 19 19 19 18 17 17 18 18 18 18 17 16 15 16 16 17 16 16 16 14 14 15 16 16 15 15 14 14 14 13 14
18 19 18 18 18 17 17 16 17 17 17 16 15 15 15 15 16 16 15 14 14 14 14 15 16 15 15 14 14 14 13 13
18 18 18 19 17 17 16 16 16 16 16 16 15 15 15 15 15 16 15 15 15 13 14 14 14 14 14 13 12 12 13 13
18 18 17 18 17 17 16 16 16 16 16 16 16 15 15 15 15 15 15 15 14 13 13 14 14 12 13 11 11 12 11 12
17 17 17 16 16 18 17 17 16 16 16 16 15 15 15 15 15 14 15 14 13 13 12 12 14 12 12 15 14 16 13 11
16 16 16 16 15 16 16 16 16 14 15 15 15 15 15 15 15 14 14 13 12 11 12 12 13 12 11 14 18 17 15 13
16 16 16 15 15 15 16 16 16 16 15 14 14 15 15 15 14 14 14 13 12 11 10 11 11 13 12 13 16 14 13 14
16 16 16 15 15 15 15 15 15 15 15 15 15 15 14 14 14 14 14 13 12 11 10 9 9 10 10 11 13 12 13 12
16 16 16 16 15 15 14 14 14 14 14 14 13 14 13 12 12 12 13 13 12 11 10 8 8 8 8 8 10 11 12 10
15 15 16 16 15 15 14 14 14 14 14 13 12 12 11 11 11 11 11 11 12 11 10 9 8 7 8 7 8 7 7 8
Height
790 793 797 800 804 806 808 810 813 813 814 817 818 822 826 830 830 831 832 833 834 835 836 836 837 839 841 841 842 842 844 844
791 793 795 799 803 806 808 810 813 815 816 818 820 822 826 829 830 831 832 833 835 835 837 837 838 839 841 842 843 844 845 845
789 790 792 797 801 803 806 810 812 814 817 819 821 824 825 827 830 830 831 832 834 835 836 838 839 841 841 842 844 845 845 845
784 787 789 793 797 801 804 808 811 814 817 819 822 823 824 826 828 829 830 832 834 835 836 837 840 842 843 843 844 845 846 845
780 783 785 788 794 798 800 802 806 809 812 815 819 821 822 823 825 828 829 830 832 834 836 838 840 841 843 845 845 845 845 846
780 783 786 786 789 793 798 801 803 805 806 808 811 815 818 819 821 826 828 829 830 832 835 837 839 841 841 843 844 845 846 846
777 780 783 786 789 792 793 795 798 800 802 804 806 809 813 815 817 820 824 826 827 827 829 834 837 839 840 840 843 844 845 846
774 777 780 783 785 788 790 791 793 795 800 802 801 805 809 813 814 815 820 824 827 827 826 827 831 835 838 839 840 842 843 844
769 772 778 781 785 787 790 791 793 792 794 794 799 802 804 806 807 809 811 815 821 827 828 828 826 831 834 837 838 840 841 842
767 770 774 776 780 784 784 786 787 789 789 789 790 793 802 803 804 806 808 807 810 814 821 827 828 824 829 832 836 838 839 840
768 770 772 774 775 778 779 781 782 785 787 788 787 787 790 794 800 801 802 803 805 808 804 811 823 824 825 829 829 832 837 840
770 771 772 773 774 775 776 776 777 779 780 781 783 784 785 788 791 795 798 798 799 802 802 804 809 813 814 825 831 829 830 835
773 772 773 772 772 774 774 773 773 773 773 773 773 774 777 778 782 787 789 791 791 794 797 801 806 806 806 814 828 830 827 828
777 775 774 771 771 771 770 770 769 768 768 767 767 767 767 770 772 775 777 781 783 785 788 793 800 802 798 799 813 824 820 823
778 776 775 774 772 770 768 767 766 766 764 762 760 760 760 759 760 762 765 766 766 769 775 780 785 790 791 787 795 792 802 808
779 777 775 773 772 769 767 765 764 764 761 759 755 753 750 749 750 752 753 754 756 755 758 764 770 771 779 775 775 781 785 796
780 777 775 774 772 770 766 764 764 761 759 758 755 750 747 745 743 741 744 740 743 744 748 748 748 750 753 750 760 775 777 780
778 775 773 771 769 769 765 763 761 758 756 754 752 749 746 742 739 738 736 732 731 731 734 734 738 743 732 750 751 758 767 770
776 772 769 768 767 765 761 759 758 757 754 752 750 747 744 741 737 734 730 728 727 728 727 730 737 741 751 755 763 761 755 762
772 770 767 765 762 761 759 757 754 753 752 750 747 744 742 739 737 733 729 726 723 720 720 719 723 728 732 737 742 752 757 752
Wind_Speed
18 22 23 25 26 26 25 24 24 25 25 25 24 22 18 18 20 19 18 16 15 15 16 18 18 17 17 16 13 13 8 8
16 20 21 23 23 26 25 24 24 24 23 23 22 21 20 21 21 18 15 14 15 16 16 16 19 20 18 16 12 11 7 8
18 20 20 22 22 22 25 24 24 23 22 22 21 19 22 22 19 18 15 13 16 17 16 18 19 19 18 16 11 6 8 7
20 20 22 23 23 21 23 21 21 20 19 19 20 19 21 20 19 20 17 14 17 18 18 19 18 15 14 15 8 9 7 7
20 21 22 24 22 21 23 23 22 22 22 22 22 21 21 21 17 17 15 17 15 17 17 17 17 15 14 13 10 10 8 8
16 19 19 22 22 22 21 21 22 22 25 28 27 24 24 21 18 18 17 17 18 19 17 17 17 16 15 14 12 10 9 9
16 18 19 19 21 20 21 22 23 23 25 26 28 24 23 23 22 21 20 19 20 21 19 19 17 16 15 15 14 12 11 10
13 17 19 20 22 23 22 23 24 25 23 25 33 26 25 24 23 22 20 19 19 20 21 20 19 17 16 15 15 14 14 13
12 14 16 19 20 19 21 20 22 24 25 27 29 30 28 27 26 25 25 23 20 18 18 19 20 18 18 16 16 15 15 16
7 9 11 16 19 19 20 22 24 26 26 26 30 33 28 24 26 26 24 24 25 24 21 19 20 21 19 18 17 16 16 17
6 3 7 11 16 19 22 24 24 24 25 27 27 32 36 31 29 27 28 27 29 29 29 27 23 21 20 20 20 18 18 18
14 9 7 10 11 16 23 25 28 26 27 29 29 28 34 37 30 29 29 29 27 29 27 28 29 28 24 20 18 19 19 20
18 14 10 7 11 16 18 21 26 28 31 33 32 31 34 37 36 33 33 32 32 31 29 29 28 29 27 20 15 18 20 22
16 16 15 12 8 8 11 15 22 30 29 30 31 36 39 42 42 38 36 35 32 34 34 30 30 33 23 27 9 16 22 23
13 13 13 13 13 9 9 10 15 19 25 33 35 40 42 45 43 43 39 39 39 46 43 41 35 36 32 17 7 10 21 27
10 11 12 12 13 11 11 9 11 13 16 17 24 33 41 46 48 47 44 43 40 48 53 48 44 37 40 40 26 17 10 10
8 8 9 11 11 11 12 12 13 14 16 19 20 22 20 32 40 44 46 43 46 46 46 50 52 45 45 43 36 21 20 10
7 8 8 8 7 7 7 9 12 13 14 15 16 18 20 19 23 39 40 41 47 49 52 52 49 38 37 37 39 25 20 10
12 10 11 9 9 9 7 7 9 11 12 14 16 17 17 17 17 20 28 36 39 38 36 37 35 32 31 25 25 29 23 9
15 16 16 13 11 12 10 9 8 9 10 11 12 14 16 16 17 16 19 25 28 32 34 39 39 39 37 38 39 30 21 23
Wind_Direction
179 186 191 196 201 202 201 199 197 193 188 187 184 182 182 189 185 186 184 189 182 189 187 184 184 181 177 172 163 137 148 142
186 188 191 195 200 207 206 204 202 198 193 191 188 179 189 198 192 193 192 191 185 194 195 186 184 181 180 177 165 136 152 144
196 192 194 194 201 207 207 208 206 201 198 196 190 189 196 199 196 209 196 197 189 197 194 188 185 184 184 180 162 179 161 159
202 201 199 196 199 204 202 204 204 203 200 200 196 203 196 194 199 213 195 202 192 198 196 192 180 179 184 180 188 184 177 169
210 207 201 195 199 204 203 204 204 205 204 203 205 203 195 194 197 199 194 199 187 191 196 189 192 191 196 197 199 182 181 174
225 215 212 205 201 205 208 210 209 208 207 201 199 201 203 196 200 202 204 203 195 190 197 198 201 203 199 202 195 191 187 176
232 221 215 214 212 212 209 214 215 215 209 205 201 199 208 204 204 205 213 211 204 196 196 200 206 207 204 195 194 193 186 181
245 230 220 218 220 218 219 218 221 218 220 216 205 209 213 215 212 208 214 214 215 208 200 196 198 202 203 199 194 194 187 185
245 231 228 226 231 233 233 237 233 227 225 221 219 215 215 213 213 208 209 207 204 213 210 203 194 199 200 200 197 196 193 187
268 234 230 226 224 232 235 239 239 239 232 225 222 217 224 217 219 216 208 202 196 194 200 209 206 195 198 199 201 201 197 193
20 277 246 238 232 234 237 238 240 244 243 238 231 224 219 220 224 222 211 205 198 195 191 195 207 202 196 200 196 200 201 199
38 15 308 265 251 245 243 241 240 241 241 236 235 231 230 224 223 222 214 207 203 206 194 195 202 196 187 198 206 200 198 202
39 36 12 325 263 251 252 245 245 241 237 236 235 234 235 224 222 227 215 215 211 204 198 199 200 193 176 177 205 210 200 202
29 26 22 20 0 281 256 266 264 253 252 247 242 238 238 229 229 225 218 217 210 201 196 199 202 192 183 157 177 210 210 206
12 8 6 7 3 351 331 311 286 271 265 256 247 245 240 233 229 222 221 212 204 203 198 198 200 201 195 180 166 217 182 198
11 8 12 11 9 4 354 339 329 319 325 302 272 254 243 241 233 227 224 213 212 208 205 205 206 197 205 213 219 210 184 179
351 357 4 4 3 3 359 355 344 332 323 318 313 302 302 266 241 230 227 220 219 214 212 209 207 209 204 199 206 213 195 187
315 311 317 328 335 340 355 350 344 341 338 330 324 316 309 299 277 247 240 230 222 219 217 215 214 218 212 213 200 187 199 165
314 297 295 288 289 296 309 324 328 329 333 332 327 323 314 307 303 287 262 246 235 232 223 218 222 218 222 220 235 203 174 159
317 298 289 287 278 277 284 289 295 306 314 317 318 315 309 306 304 298 288 276 260 239 227 217 214 213 211 203 202 210 198 167